QPF
0.00 0.00 0.01 0.02 0.04 0.06 0.06 0.07 0.07 0.07 0.07 0.06 0.04 0.03 0.02 0.01 0.01 0.01 0.01 0.02 0.01 0.01 0.01 0.02 0.02 0.02 0.01 0.01 0.01 0.00 0.00 0.00 0.00 0.00 0.00 0.00 0.00 0.00 0.00 0.00 0.00 0.00 0.00
0.02 0.01 0.01 0.01 0.02 0.04 0.06 0.09 0.10 0.10 0.09 0.08 0.06 0.05 0.03 0.02 0.02 0.01 0.01 0.01 0.02 0.01 0.01 0.02 0.03 0.04 0.03 0.03 0.02 0.02 0.01 0.01 0.00 0.00 0.00 0.00 0.00 0.00 0.00 0.00 0.00 0.00 0.00
0.03 0.02 0.02 0.02 0.02 0.02 0.04 0.06 0.09 0.11 0.11 0.11 0.11 0.09 0.07 0.06 0.05 0.03 0.02 0.01 0.01 0.01 0.01 0.01 0.03 0.04 0.05 0.05 0.04 0.03 0.03 0.01 0.01 0.01 0.01 0.01 0.01 0.01 0.01 0.01 0.01 0.00 0.00
0.02 0.02 0.02 0.02 0.02 0.03 0.04 0.05 0.07 0.09 0.09 0.09 0.09 0.10 0.09 0.08 0.07 0.06 0.04 0.02 0.02 0.01 0.01 0.01 0.02 0.03 0.04 0.04 0.05 0.05 0.05 0.04 0.03 0.02 0.01 0.01 0.01 0.01 0.01 0.01 0.02 0.01 0.01
0.02 0.02 0.02 0.02 0.03 0.03 0.04 0.05 0.06 0.07 0.07 0.09 0.09 0.09 0.08 0.07 0.06 0.05 0.04 0.03 0.02 0.02 0.02 0.02 0.02 0.03 0.04 0.05 0.05 0.06 0.06 0.06 0.04 0.03 0.02 0.02 0.01 0.02 0.01 0.01 0.01 0.01 0.01
0.02 0.02 0.02 0.03 0.04 0.04 0.05 0.06 0.06 0.07 0.06 0.08 0.10 0.10 0.10 0.09 0.07 0.05 0.04 0.03 0.03 0.02 0.02 0.02 0.02 0.02 0.03 0.05 0.07 0.08 0.08 0.07 0.06 0.06 0.05 0.03 0.03 0.02 0.02 0.02 0.02 0.02 0.02
0.03 0.03 0.04 0.04 0.04 0.04 0.05 0.06 0.08 0.09 0.11 0.14 0.15 0.13 0.11 0.12 0.12 0.10 0.08 0.06 0.04 0.03 0.03 0.03 0.02 0.02 0.02 0.03 0.04 0.07 0.09 0.10 0.09 0.08 0.07 0.06 0.05 0.04 0.03 0.03 0.02 0.02 0.02
0.02 0.03 0.04 0.05 0.05 0.05 0.06 0.08 0.10 0.14 0.16 0.19 0.21 0.20 0.18 0.15 0.13 0.10 0.10 0.10 0.09 0.08 0.06 0.05 0.04 0.03 0.02 0.02 0.03 0.04 0.06 0.08 0.09 0.10 0.10 0.09 0.07 0.05 0.04 0.04 0.04 0.03 0.03
0.02 0.02 0.02 0.02 0.02 0.03 0.05 0.06 0.08 0.10 0.14 0.18 0.21 0.22 0.22 0.19 0.14 0.11 0.10 0.09 0.09 0.09 0.08 0.07 0.07 0.06 0.04 0.03 0.03 0.04 0.05 0.05 0.07 0.09 0.10 0.11 0.10 0.08 0.06 0.06 0.07 0.06 0.06
0.02 0.02 0.02 0.02 0.02 0.03 0.04 0.05 0.06 0.06 0.06 0.08 0.12 0.16 0.17 0.16 0.14 0.11 0.08 0.08 0.08 0.09 0.09 0.09 0.10 0.10 0.10 0.08 0.05 0.04 0.05 0.06 0.07 0.08 0.10 0.11 0.12 0.11 0.09 0.08 0.08 0.08 0.08
0.03 0.02 0.02 0.02 0.02 0.02 0.02 0.04 0.05 0.05 0.06 0.07 0.07 0.09 0.11 0.12 0.11 0.10 0.09 0.08 0.09 0.10 0.10 0.11 0.12 0.13 0.13 0.12 0.09 0.08 0.07 0.06 0.07 0.09 0.10 0.12 0.13 0.13 0.13 0.12 0.10 0.10 0.09
0.03 0.01 0.01 0.01 0.01 0.01 0.02 0.03 0.04 0.04 0.05 0.05 0.06 0.06 0.08 0.10 0.10 0.09 0.09 0.07 0.06 0.07 0.09 0.11 0.12 0.13 0.13 0.11 0.10 0.10 0.08 0.06 0.06 0.07 0.09 0.12 0.13 0.13 0.12 0.12 0.11 0.10 0.10
0.02 0.01 0.01 0.02 0.02 0.02 0.02 0.03 0.03 0.03 0.02 0.03 0.03 0.04 0.06 0.07 0.08 0.08 0.08 0.07 0.07 0.08 0.09 0.09 0.09 0.09 0.10 0.10 0.10 0.10 0.09 0.08 0.06 0.05 0.06 0.09 0.10 0.09 0.10 0.11 0.11 0.10 0.09
0.01 0.01 0.02 0.02 0.01 0.02 0.03 0.04 0.05 0.03 0.03 0.02 0.02 0.03 0.03 0.04 0.05 0.06 0.06 0.07 0.09 0.10 0.10 0.09 0.08 0.08 0.09 0.09 0.09 0.09 0.07 0.08 0.07 0.06 0.06 0.07 0.07 0.07 0.07 0.08 0.10 0.11 0.10
0.00 0.00 0.01 0.01 0.01 0.01 0.02 0.02 0.03 0.03 0.03 0.03 0.03 0.03 0.03 0.03 0.03 0.04 0.05 0.06 0.07 0.08 0.08 0.07 0.07 0.08 0.08 0.08 0.08 0.08 0.06 0.07 0.07 0.06 0.06 0.06 0.06 0.07 0.08 0.07 0.08 0.09 0.09
0.00 0.00 0.01 0.01 0.01 0.01 0.02 0.02 0.02 0.02 0.03 0.03 0.02 0.02 0.02 0.03 0.03 0.03 0.04 0.05 0.06 0.07 0.06 0.05 0.04 0.05 0.06 0.08 0.09 0.08 0.07 0.08 0.07 0.06 0.06 0.06 0.07 0.07 0.09 0.10 0.09 0.07 0.07
0.01 0.01 0.01 0.01 0.01 0.01 0.01 0.02 0.03 0.03 0.03 0.04 0.04 0.04 0.04 0.04 0.04 0.04 0.05 0.05 0.06 0.06 0.06 0.04 0.03 0.04 0.05 0.05 0.06 0.08 0.09 0.09 0.08 0.09 0.07 0.07 0.07 0.08 0.08 0.08 0.09 0.09 0.06
0.01 0.01 0.01 0.01 0.01 0.01 0.01 0.01 0.02 0.03 0.04 0.04 0.05 0.05 0.05 0.05 0.05 0.06 0.06 0.06 0.06 0.06 0.05 0.04 0.04 0.04 0.04 0.05 0.06 0.07 0.09 0.11 0.10 0.09 0.08 0.07 0.07 0.07 0.08 0.08 0.08 0.08 0.07
0.02 0.02 0.01 0.01 0.01 0.01 0.01 0.01 0.01 0.02 0.03 0.03 0.03 0.04 0.04 0.04 0.05 0.05 0.05 0.05 0.06 0.06 0.06 0.05 0.04 0.04 0.05 0.06 0.07 0.07 0.07 0.09 0.09 0.09 0.08 0.08 0.07 0.07 0.08 0.09 0.09 0.08 0.07
0.01 0.01 0.02 0.02 0.01 0.01 0.01 0.01 0.01 0.01 0.01 0.01 0.01 0.02 0.02 0.03 0.04 0.04 0.04 0.04 0.04 0.05 0.06 0.06 0.06 0.06 0.06 0.06 0.06 0.07 0.07 0.07 0.07 0.07 0.09 0.08 0.08 0.08 0.08 0.09 0.09 0.09 0.08
0.00 0.00 0.00 0.01 0.01 0.01 0.00 0.00 0.00 0.00 0.00 0.00 0.00 0.01 0.01 0.01 0.02 0.02 0.02 0.03 0.03 0.03 0.04 0.05 0.06 0.06 0.06 0.07 0.07 0.07 0.07 0.07 0.07 0.07 0.08 0.08 0.07 0.08 0.08 0.09 0.09 0.09 0.09
0.00 0.00 0.00 0.00 0.00 0.00 0.00 0.00 0.00 0.00 0.00 0.00 0.00 0.00 0.01 0.01 0.01 0.01 0.02 0.02 0.03 0.03 0.03 0.04 0.04 0.05 0.05 0.05 0.06 0.07 0.07 0.08 0.08 0.07 0.08 0.08 0.07 0.07 0.06 0.06 0.08 0.09 0.09
0.00 0.00 0.00 0.00 0.00 0.00 0.00 0.00 0.00 0.00 0.00 0.00 0.00 0.00 0.00 0.00 0.00 0.00 0.01 0.01 0.02 0.03 0.03 0.03 0.03 0.03 0.03 0.03 0.04 0.06 0.06 0.07 0.07 0.06 0.08 0.09 0.08 0.09 0.06 0.06 0.07 0.07 0.08
0.00 0.00 0.00 0.00 0.00 0.00 0.00 0.00 0.00 0.00 0.00 0.00 0.00 0.00 0.00 0.00 0.01 0.01 0.01 0.01 0.01 0.02 0.02 0.02 0.03 0.03 0.03 0.03 0.04 0.05 0.06 0.07 0.07 0.07 0.08 0.10 0.08 0.08 0.07 0.07 0.08 0.08 0.08
0.00 0.00 0.00 0.00 0.00 0.00 0.00 0.01 0.01 0.01 0.01 0.01 0.01 0.01 0.01 0.01 0.02 0.02 0.02 0.02 0.02 0.02 0.03 0.03 0.03 0.03 0.04 0.04 0.04 0.04 0.05 0.06 0.06 0.06 0.06 0.08 0.07 0.07 0.07 0.08 0.08 0.09 0.08
0.00 0.00 0.00 0.00 0.00 0.00 0.00 0.01 0.01 0.00 0.00 0.01 0.01 0.01 0.01 0.01 0.02 0.02 0.02 0.02 0.02 0.02 0.02 0.03 0.03 0.03 0.03 0.03 0.03 0.03 0.04 0.05 0.05 0.05 0.04 0.06 0.06 0.07 0.09 0.08 0.07 0.07 0.09
MSLP
1016.91 1016.54 1016.12 1015.71 1015.33 1015.01 1014.76 1014.58 1014.46 1014.37 1014.29 1014.22 1014.13 1014.06 1013.99 1013.96 1013.96 1014.00 1014.07 1014.16 1014.25 1014.33 1014.40 1014.46 1014.52 1014.62 1014.74 1014.90 1015.11 1015.33 1015.56 1015.79 1015.98 1016.15 1016.29 1016.42 1016.54 1016.66 1016.80 1016.96 1017.14 1017.31 1017.49
1016.91 1016.50 1016.06 1015.62 1015.22 1014.88 1014.62 1014.42 1014.27 1014.15 1014.03 1013.91 1013.77 1013.63 1013.51 1013.42 1013.38 1013.39 1013.45 1013.54 1013.64 1013.75 1013.84 1013.93 1014.02 1014.11 1014.23 1014.37 1014.54 1014.74 1014.96 1015.17 1015.38 1015.57 1015.74 1015.90 1016.05 1016.19 1016.34 1016.50 1016.66 1016.84 1017.02
1016.87 1016.45 1016.00 1015.56 1015.15 1014.81 1014.53 1014.31 1014.13 1013.97 1013.80 1013.61 1013.41 1013.21 1013.03 1012.88 1012.80 1012.78 1012.82 1012.91 1013.03 1013.17 1013.30 1013.41 1013.52 1013.62 1013.72 1013.84 1013.99 1014.15 1014.34 1014.54 1014.74 1014.94 1015.14 1015.32 1015.50 1015.66 1015.83 1015.99 1016.15 1016.31 1016.48
1016.85 1016.42 1015.98 1015.55 1015.15 1014.80 1014.51 1014.26 1014.04 1013.82 1013.58 1013.32 1013.05 1012.78 1012.53 1012.33 1012.20 1012.15 1012.18 1012.27 1012.41 1012.56 1012.72 1012.87 1013.00 1013.11 1013.21 1013.31 1013.43 1013.56 1013.71 1013.88 1014.07 1014.27 1014.48 1014.68 1014.88 1015.07 1015.25 1015.41 1015.57 1015.73 1015.90
1016.90 1016.48 1016.05 1015.63 1015.24 1014.88 1014.57 1014.27 1013.98 1013.69 1013.37 1013.03 1012.68 1012.33 1012.02 1011.77 1011.59 1011.51 1011.52 1011.60 1011.74 1011.92 1012.11 1012.29 1012.44 1012.57 1012.68 1012.77 1012.86 1012.96 1013.07 1013.21 1013.37 1013.56 1013.76 1013.97 1014.18 1014.38 1014.58 1014.75 1014.92 1015.08 1015.25
1017.08 1016.66 1016.24 1015.83 1015.44 1015.06 1014.71 1014.35 1013.99 1013.61 1013.20 1012.78 1012.35 1011.93 1011.55 1011.24 1011.02 1010.90 1010.87 1010.94 1011.07 1011.25 1011.46 1011.66 1011.84 1012.00 1012.12 1012.21 1012.29 1012.35 1012.43 1012.52 1012.64 1012.79 1012.96 1013.16 1013.37 1013.59 1013.79 1013.99 1014.17 1014.34 1014.51
1017.41 1016.99 1016.57 1016.16 1015.76 1015.36 1014.95 1014.53 1014.09 1013.62 1013.13 1012.62 1012.12 1011.63 1011.20 1010.83 1010.56 1010.38 1010.31 1010.33 1010.44 1010.61 1010.81 1011.03 1011.23 1011.41 1011.55 1011.65 1011.72 1011.76 1011.79 1011.82 1011.89 1011.98 1012.11 1012.27 1012.46 1012.67 1012.89 1013.10 1013.30 1013.50 1013.69
1017.87 1017.44 1017.03 1016.61 1016.20 1015.76 1015.31 1014.83 1014.32 1013.77 1013.21 1012.64 1012.08 1011.55 1011.06 1010.64 1010.30 1010.07 1009.93 1009.88 1009.94 1010.06 1010.24 1010.45 1010.67 1010.86 1011.02 1011.13 1011.19 1011.20 1011.18 1011.16 1011.14 1011.16 1011.22 1011.32 1011.48 1011.66 1011.88 1012.10 1012.33 1012.55 1012.77
1018.41 1017.99 1017.58 1017.16 1016.73 1016.28 1015.79 1015.27 1014.71 1014.12 1013.52 1012.92 1012.32 1011.76 1011.23 1010.77 1010.37 1010.05 1009.83 1009.70 1009.66 1009.72 1009.85 1010.03 1010.24 1010.44 1010.60 1010.72 1010.76 1010.74 1010.67 1010.56 1010.46 1010.38 1010.34 1010.37 1010.46 1010.61 1010.80 1011.03 1011.27 1011.52 1011.77
1018.99 1018.58 1018.17 1017.76 1017.33 1016.88 1016.38 1015.84 1015.27 1014.68 1014.08 1013.47 1012.88 1012.31 1011.77 1011.26 1010.80 1010.40 1010.08 1009.85 1009.71 1009.67 1009.72 1009.85 1010.03 1010.22 1010.38 1010.48 1010.50 1010.44 1010.30 1010.11 1009.90 1009.70 1009.56 1009.48 1009.48 1009.57 1009.72 1009.93 1010.18 1010.44 1010.72
1019.54 1019.14 1018.75 1018.36 1017.95 1017.51 1017.03 1016.52 1015.98 1015.42 1014.85 1014.28 1013.72 1013.17 1012.64 1012.11 1011.60 1011.13 1010.70 1010.36 1010.11 1009.96 1009.93 1009.99 1010.11 1010.26 1010.40 1010.47 1010.46 1010.34 1010.13 1009.84 1009.52 1009.20 1008.92 1008.73 1008.63 1008.63 1008.72 1008.88 1009.11 1009.36 1009.65
1020.00 1019.62 1019.26 1018.89 1018.52 1018.12 1017.69 1017.23 1016.74 1016.25 1015.75 1015.26 1014.76 1014.26 1013.74 1013.21 1012.68 1012.14 1011.64 1011.19 1010.84 1010.59 1010.46 1010.44 1010.50 1010.60 1010.69 1010.72 1010.66 1010.47 1010.18 1009.79 1009.35 1008.90 1008.49 1008.17 1007.95 1007.84 1007.85 1007.94 1008.12 1008.34 1008.60
1020.37 1020.01 1019.67 1019.34 1019.00 1018.65 1018.28 1017.89 1017.48 1017.08 1016.67 1016.26 1015.85 1015.41 1014.95 1014.44 1013.90 1013.33 1012.78 1012.26 1011.82 1011.48 1011.27 1011.17 1011.17 1011.21 1011.24 1011.21 1011.08 1010.82 1010.44 1009.95 1009.39 1008.82 1008.29 1007.83 1007.48 1007.26 1007.15 1007.16 1007.25 1007.40 1007.61
1020.63 1020.29 1019.97 1019.67 1019.37 1019.06 1018.75 1018.43 1018.11 1017.79 1017.48 1017.17 1016.84 1016.49 1016.09 1015.63 1015.11 1014.54 1013.97 1013.42 1012.93 1012.53 1012.26 1012.10 1012.03 1012.00 1011.97 1011.87 1011.67 1011.33 1010.87 1010.28 1009.62 1008.93 1008.28 1007.70 1007.23 1006.88 1006.66 1006.54 1006.52 1006.58 1006.69
1020.81 1020.47 1020.17 1019.89 1019.61 1019.34 1019.07 1018.81 1018.56 1018.31 1018.08 1017.86 1017.62 1017.35 1017.02 1016.62 1016.15 1015.62 1015.07 1014.52 1014.02 1013.61 1013.30 1013.09 1012.96 1012.87 1012.77 1012.61 1012.33 1011.92 1011.37 1010.70 1009.95 1009.18 1008.42 1007.74 1007.15 1006.68 1006.33 1006.09 1005.94 1005.87 1005.87
1020.92 1020.59 1020.29 1020.01 1019.74 1019.49 1019.24 1019.01 1018.80 1018.61 1018.44 1018.28 1018.11 1017.91 1017.66 1017.33 1016.93 1016.46 1015.96 1015.45 1014.98 1014.57 1014.25 1014.01 1013.84 1013.70 1013.54 1013.30 1012.96 1012.48 1011.86 1011.13 1010.32 1009.47 1008.64 1007.87 1007.19 1006.61 1006.13 1005.76 1005.47 1005.26 1005.12
1021.00 1020.67 1020.36 1020.07 1019.79 1019.53 1019.29 1019.07 1018.87 1018.70 1018.56 1018.44 1018.31 1018.17 1017.97 1017.72 1017.39 1017.00 1016.56 1016.12 1015.69 1015.31 1015.00 1014.75 1014.55 1014.36 1014.14 1013.85 1013.45 1012.91 1012.25 1011.48 1010.63 1009.74 1008.87 1008.04 1007.28 1006.61 1006.02 1005.51 1005.08 1004.73 1004.44
1021.05 1020.72 1020.40 1020.10 1019.80 1019.52 1019.26 1019.02 1018.81 1018.64 1018.51 1018.39 1018.29 1018.18 1018.03 1017.83 1017.57 1017.25 1016.88 1016.50 1016.12 1015.78 1015.48 1015.23 1015.01 1014.78 1014.52 1014.18 1013.73 1013.16 1012.48 1011.69 1010.83 1009.94 1009.04 1008.18 1007.37 1006.62 1005.93 1005.31 1004.75 1004.25 1003.82
1021.06 1020.74 1020.43 1020.11 1019.80 1019.50 1019.21 1018.95 1018.72 1018.52 1018.37 1018.24 1018.14 1018.04 1017.91 1017.74 1017.53 1017.26 1016.95 1016.62 1016.29 1015.97 1015.68 1015.42 1015.18 1014.92 1014.62 1014.25 1013.79 1013.21 1012.52 1011.75 1010.91 1010.03 1009.14 1008.26 1007.42 1006.62 1005.85 1005.13 1004.45 1003.82 1003.26
1021.02 1020.74 1020.43 1020.12 1019.80 1019.49 1019.18 1018.88 1018.62 1018.39 1018.21 1018.06 1017.94 1017.83 1017.70 1017.54 1017.35 1017.11 1016.83 1016.52 1016.21 1015.90 1015.62 1015.35 1015.08 1014.80 1014.48 1014.10 1013.63 1013.06 1012.41 1011.67 1010.86 1010.02 1009.15 1008.29 1007.43 1006.59 1005.77 1004.96 1004.18 1003.44 1002.76
1020.93 1020.68 1020.41 1020.12 1019.80 1019.48 1019.16 1018.85 1018.56 1018.30 1018.08 1017.90 1017.75 1017.61 1017.47 1017.30 1017.10 1016.85 1016.57 1016.27 1015.95 1015.64 1015.33 1015.04 1014.75 1014.46 1014.13 1013.75 1013.30 1012.77 1012.16 1011.48 1010.73 1009.94 1009.12 1008.28 1007.42 1006.56 1005.69 1004.82 1003.96 1003.13 1002.35
1020.76 1020.57 1020.34 1020.07 1019.78 1019.47 1019.14 1018.82 1018.50 1018.22 1017.98 1017.77 1017.58 1017.41 1017.24 1017.04 1016.82 1016.55 1016.24 1015.91 1015.57 1015.22 1014.89 1014.57 1014.26 1013.96 1013.63 1013.27 1012.86 1012.39 1011.84 1011.23 1010.55 1009.83 1009.05 1008.24 1007.40 1006.53 1005.64 1004.72 1003.81 1002.91 1002.05
1020.52 1020.39 1020.20 1019.98 1019.71 1019.41 1019.09 1018.76 1018.43 1018.13 1017.87 1017.63 1017.42 1017.22 1017.01 1016.78 1016.52 1016.21 1015.86 1015.49 1015.10 1014.72 1014.35 1014.00 1013.68 1013.37 1013.06 1012.74 1012.38 1011.97 1011.50 1010.96 1010.36 1009.70 1008.98 1008.21 1007.39 1006.52 1005.61 1004.68 1003.73 1002.79 1001.87
1020.23 1020.14 1020.00 1019.81 1019.56 1019.28 1018.96 1018.62 1018.29 1017.98 1017.70 1017.45 1017.22 1016.99 1016.76 1016.49 1016.19 1015.85 1015.46 1015.04 1014.60 1014.18 1013.77 1013.40 1013.06 1012.76 1012.47 1012.19 1011.88 1011.54 1011.15 1010.69 1010.16 1009.56 1008.90 1008.16 1007.37 1006.51 1005.61 1004.68 1003.71 1002.75 1001.81
1019.90 1019.85 1019.74 1019.57 1019.33 1019.05 1018.73 1018.39 1018.05 1017.73 1017.44 1017.18 1016.94 1016.70 1016.45 1016.17 1015.84 1015.46 1015.03 1014.57 1014.10 1013.64 1013.20 1012.81 1012.46 1012.17 1011.91 1011.66 1011.41 1011.13 1010.80 1010.41 1009.94 1009.40 1008.77 1008.08 1007.31 1006.48 1005.60 1004.68 1003.73 1002.77 1001.82
1019.55 1019.53 1019.43 1019.26 1019.02 1018.73 1018.39 1018.04 1017.70 1017.37 1017.08 1016.81 1016.57 1016.33 1016.08 1015.79 1015.45 1015.05 1014.61 1014.12 1013.62 1013.13 1012.67 1012.26 1011.91 1011.62 1011.38 1011.16 1010.95 1010.71 1010.43 1010.09 1009.67 1009.16 1008.58 1007.91 1007.17 1006.37 1005.52 1004.63 1003.71 1002.78 1001.85
Thickness
5660 5662 5664 5666 5667 5669 5670 5672 5674 5675 5675 5676 5676 5676 5676 5676 5676 5676 5676 5676 5676 5676 5676 5676 5676 5675 5675 5674 5673 5672 5672 5671 5670 5669 5668 5667 5667 5666 5665 5664 5664 5663 5661
5650 5652 5654 5655 5657 5658 5660 5663 5665 5666 5667 5668 5669 5670 5670 5670 5670 5670 5671 5671 5671 5671 5671 5671 5671 5671 5671 5670 5669 5668 5667 5667 5666 5665 5664 5663 5662 5661 5660 5660 5659 5658 5657
5639 5641 5643 5644 5646 5647 5650 5652 5654 5656 5658 5659 5660 5662 5662 5663 5664 5664 5664 5665 5665 5665 5665 5666 5666 5666 5666 5666 5665 5664 5663 5662 5661 5660 5659 5658 5658 5657 5656 5655 5655 5654 5653
5628 5630 5631 5632 5634 5636 5638 5640 5643 5645 5647 5650 5652 5653 5654 5655 5656 5657 5657 5658 5658 5658 5659 5660 5660 5660 5661 5661 5661 5660 5660 5658 5657 5656 5655 5654 5653 5652 5651 5651 5650 5649 5649
5617 5618 5619 5620 5622 5624 5626 5629 5631 5633 5636 5639 5641 5645 5646 5647 5648 5649 5650 5650 5651 5652 5653 5653 5654 5654 5654 5654 5655 5655 5655 5654 5653 5652 5651 5650 5649 5648 5647 5646 5646 5645 5644
5605 5606 5608 5609 5610 5612 5614 5616 5619 5622 5624 5627 5630 5634 5637 5639 5640 5641 5642 5643 5644 5645 5645 5646 5646 5647 5647 5648 5648 5649 5649 5649 5648 5648 5646 5646 5645 5644 5643 5642 5642 5641 5641
5594 5595 5595 5597 5597 5599 5601 5603 5606 5609 5612 5614 5616 5620 5625 5629 5632 5633 5634 5635 5635 5636 5637 5638 5638 5639 5640 5640 5641 5642 5643 5643 5643 5642 5642 5642 5641 5640 5639 5638 5638 5637 5637
5583 5583 5583 5584 5584 5586 5588 5590 5592 5595 5598 5599 5600 5603 5609 5615 5620 5624 5625 5625 5626 5627 5628 5629 5629 5630 5631 5632 5633 5634 5635 5636 5637 5637 5637 5636 5636 5635 5635 5634 5634 5634 5633
5571 5571 5571 5572 5572 5573 5574 5576 5578 5580 5582 5585 5585 5587 5591 5598 5604 5609 5612 5614 5615 5615 5618 5619 5620 5621 5622 5623 5624 5625 5626 5628 5629 5630 5631 5631 5631 5630 5630 5629 5629 5629 5629
5559 5559 5559 5560 5560 5561 5562 5563 5565 5566 5568 5570 5572 5574 5575 5578 5583 5592 5597 5599 5601 5603 5605 5607 5608 5611 5612 5613 5614 5615 5616 5618 5620 5622 5624 5625 5625 5625 5625 5624 5624 5625 5625
5548 5548 5548 5548 5549 5549 5550 5551 5553 5554 5555 5556 5558 5560 5562 5564 5567 5571 5580 5585 5586 5589 5592 5594 5596 5598 5599 5601 5602 5604 5605 5607 5610 5613 5615 5617 5618 5619 5619 5619 5619 5619 5619
5537 5536 5536 5536 5537 5538 5539 5539 5541 5542 5543 5544 5544 5545 5547 5549 5552 5554 5560 5566 5571 5576 5579 5581 5583 5585 5587 5589 5590 5593 5595 5596 5599 5602 5605 5607 5609 5610 5611 5612 5613 5613 5613
5525 5525 5525 5525 5526 5527 5528 5528 5529 5531 5531 5532 5532 5533 5534 5536 5538 5540 5543 5549 5554 5560 5565 5569 5572 5573 5574 5576 5578 5581 5583 5585 5587 5590 5593 5596 5599 5601 5603 5604 5604 5605 5606
5515 5514 5514 5515 5515 5515 5516 5517 5518 5519 5519 5519 5520 5520 5522 5524 5525 5527 5529 5532 5537 5544 5550 5556 5559 5560 5561 5562 5565 5568 5571 5574 5576 5579 5582 5585 5588 5590 5592 5595 5596 5596 5597
5506 5505 5505 5505 5504 5505 5505 5506 5506 5506 5507 5507 5508 5508 5510 5511 5513 5514 5516 5518 5520 5528 5537 5542 5543 5545 5546 5548 5552 5555 5560 5564 5565 5568 5572 5574 5577 5579 5582 5584 5586 5587 5588
5496 5496 5495 5495 5494 5494 5494 5494 5494 5494 5495 5495 5496 5496 5497 5498 5500 5502 5503 5505 5507 5511 5519 5527 5528 5529 5531 5533 5537 5541 5546 5550 5554 5557 5560 5563 5565 5568 5571 5574 5576 5578 5580
5488 5487 5486 5485 5484 5483 5483 5482 5482 5482 5482 5482 5482 5483 5483 5484 5485 5487 5488 5491 5493 5495 5501 5509 5511 5513 5515 5518 5522 5527 5532 5536 5541 5544 5548 5551 5554 5557 5560 5562 5565 5567 5570
5479 5478 5476 5475 5474 5473 5472 5471 5470 5469 5469 5468 5468 5469 5469 5470 5470 5471 5473 5475 5477 5479 5483 5490 5495 5497 5500 5503 5507 5512 5517 5521 5526 5530 5534 5538 5541 5544 5547 5550 5553 5556 5559
5471 5470 5468 5466 5464 5463 5461 5460 5459 5457 5456 5455 5455 5455 5456 5456 5456 5457 5458 5459 5461 5464 5466 5470 5477 5481 5484 5487 5491 5496 5500 5505 5510 5514 5519 5524 5527 5531 5534 5537 5540 5544 5547
5464 5461 5459 5456 5454 5453 5451 5449 5448 5446 5444 5443 5443 5443 5442 5442 5443 5443 5444 5444 5445 5447 5449 5453 5459 5463 5466 5470 5473 5478 5484 5489 5493 5498 5503 5507 5511 5515 5519 5523 5527 5531 5535
5456 5453 5450 5447 5444 5443 5441 5439 5437 5436 5433 5432 5431 5430 5429 5429 5430 5430 5430 5430 5430 5431 5433 5435 5440 5444 5447 5450 5454 5458 5464 5471 5477 5481 5486 5491 5496 5501 5505 5509 5513 5518 5522
5447 5444 5441 5437 5434 5432 5431 5430 5428 5425 5422 5420 5418 5417 5417 5416 5416 5416 5416 5416 5416 5415 5416 5418 5421 5424 5428 5430 5434 5438 5443 5450 5459 5465 5467 5474 5479 5485 5490 5495 5500 5504 5508
5439 5435 5432 5428 5424 5422 5422 5421 5418 5414 5411 5408 5406 5405 5404 5403 5403 5402 5402 5402 5401 5400 5400 5401 5403 5406 5409 5413 5416 5421 5425 5429 5437 5443 5446 5457 5463 5469 5475 5480 5485 5490 5494
5430 5426 5423 5419 5415 5413 5412 5411 5409 5404 5400 5397 5395 5393 5392 5390 5389 5389 5389 5389 5387 5386 5385 5387 5388 5390 5392 5395 5398 5403 5407 5413 5420 5424 5427 5435 5445 5451 5458 5464 5469 5474 5479
5421 5417 5414 5410 5406 5403 5402 5400 5398 5393 5390 5386 5384 5382 5380 5378 5378 5378 5377 5375 5375 5374 5373 5373 5374 5376 5378 5381 5383 5385 5389 5393 5402 5409 5410 5414 5424 5430 5439 5447 5453 5458 5463
5413 5409 5405 5401 5397 5393 5392 5390 5388 5383 5380 5376 5373 5371 5369 5368 5367 5366 5363 5362 5361 5361 5361 5362 5361 5361 5362 5364 5366 5367 5370 5373 5380 5389 5394 5395 5403 5407 5419 5431 5436 5441 5447